Location: Donald C. Martin Observatory
(38.3885°N, 82.3916°W)
Time: 21:31:15
(UTC-04:00)

Daily predictions for brighter satellites

Satellite Brightness Start Highest point End
(mag) Time Altitude Azimuth Time Altitude Azimuth Time Altitude Azimuth
Spot 2 Rocket 4.2 20:09:05 10° SE 20:13:37 33° ENE 20:18:11 10° N
Lacrosse 5 rocket 3.1 20:12:30 10° N 20:15:06 17° NNE 20:17:37 10° ENE
Cosmos 2344 4.0 20:12:22 10° SW 20:20:01 71° NW 20:28:32 10° NNE
Cosmos 1544 3.3 20:16:57 10° SSE 20:20:26 46° E 20:23:58 10° NNE
Cosmos 1076 Rocket 4.3 20:16:51 10° NNE 20:20:38 30° ENE 20:24:22 10° SE
Cosmos 1867 3.6 20:16:20 10° SSW 20:21:41 61° ESE 20:27:05 10° NE
H-2A R/B (2) 3.1 20:19:55 10° SW 20:22:10 20° S 20:25:55 10° ESE
Cosmos 1934 Rocket 4.1 20:16:20 10° S 20:22:27 85° W 20:28:34 10° N
FENGYUN 3A 3.7 20:18:25 10° SSE 20:23:45 66° ENE 20:29:06 10° N
CZ-2D R/B 4.3 20:20:33 10° SE 20:23:49 27° ENE 20:27:07 10° NNE
Okean 3 Rocket 3.7 20:20:37 10° N 20:24:57 56° E 20:29:18 10° SSE
Cosmos 1805 3.3 20:23:01 10° S 20:26:50 58° E 20:30:41 10° NNE
Cosmos 1833 Rocket 3.3 20:23:57 10° N 20:29:10 38° ENE 20:34:22 10° SE
ALOS 2.2 20:25:04 10° SSE 20:29:43 79° ENE 20:34:24 10° N
Helios 1A 4.3 20:26:38 10° ESE 20:29:49 22° ENE 20:33:01 10° NNE
Envisat 4.4 20:28:31 10° ESE 20:32:00 19° ENE 20:35:30 10° NNE
Abrixas 2.2 20:30:32 10° WNW 20:33:22 89° WSW 20:35:43 14° SE
RESURS DK-1 4.0 20:32:52 10° NW 20:36:41 37° WSW 20:40:29 10° S
Tiangong 1 3.4 20:35:18 10° WSW 20:37:16 17° SW 20:39:14 10° S
Cosmos 2278 Rocket 3.2 20:32:08 10° SW 20:37:38 51° WNW 20:43:11 10° NNE
ATLAS 5 CENTAUR R/B 1.8 20:35:33 10° SSW 20:40:04 57° ESE 20:44:58 10° NE
Cosmos 1125 Rocket 3.4 20:36:32 10° SSW 20:41:43 83° ESE 20:46:58 10° NNE
SeaSat 1 2.4 20:37:24 10° SSE 20:42:18 75° ENE 20:47:15 10° NNW
Cosmos 1733 4.0 20:40:00 10° SSE 20:43:22 29° E 20:46:46 10° NNE
Cosmos 1470 3.4 20:41:22 10° SSE 20:44:57 33° E 20:48:33 10° NNE
GPS 2-05 Rocket1 3.2 20:42:36 10° WSW 20:46:03 50° S 20:48:14 20° ESE
Cosmos 1048 Rocket 4.0 20:41:01 10° N 20:46:05 58° ENE 20:51:07 10° SSE
Geosat 4.3 20:41:26 10° NE 20:46:13 42° ESE 20:50:57 10° S
Cosmos 1766 Rocket 3.9 20:43:05 10° N 20:47:24 45° E 20:51:41 10° SSE
Cosmos-2242 3.4 20:43:39 10° SSE 20:47:37 40° E 20:51:36 10° NNE
GP-B 3.4 20:46:57 10° SSE 20:51:09 44° E 20:55:22 10° NNE
HJ-1C 4.3 20:50:14 10° S 20:53:33 52° W 20:56:54 10° NNW
Cosmos 2297 3.9 20:50:09 10° SSW 20:55:51 80° WNW 21:01:38 10° NNE
SJ-6B 4.5 20:53:06 10° SSW 20:56:30 33° W 20:59:55 10° NNW
USA 186 1.6 20:58:06 34° NE 20:58:06 34° NE 20:59:51 10° N
BREEZE-M DEB (TANK) 3.8 20:55:12 10° WSW 20:57:59 52° NNW 21:05:14 10° NE
H-2A R/B 3.0 20:54:36 10° S 20:58:29 74° WSW 21:02:26 10° NNW
Resurs 01 Rocket 1.8 20:56:14 10° S 21:00:38 77° WSW 21:05:04 10° NNW
Cosmos 1340 Rocket 3.4 20:57:08 10° N 21:00:53 37° ENE 21:02:28 26° ESE
CZ-4B DEB 3.7 21:01:10 27° ENE 21:01:10 27° ENE 21:03:51 10° NNE
Cosmos 2082 Rocket 2.2 21:03:48 10° NNW 21:09:31 90° W 21:14:42 13° SSE
ISS -3.1 21:07:13 10° WSW 21:10:24 53° NW 21:12:44 17° NE
Cosmos 2100 Rocket 3.9 21:07:44 10° S 21:14:01 72° E 21:20:22 10° NNE
Meteor 1-29 3.0 21:11:16 10° NNE 21:14:42 54° E 21:16:41 22° S
SAR-Lupe-4 3.4 21:16:30 26° SSE 21:18:24 87° ENE 21:22:00 10° NNW
Cosmos 1743 Rocket 3.9 21:14:17 10° N 21:18:34 45° E 21:19:40 37° ESE
Cosmos 1500 Rocket 4.3 21:15:37 10° NNE 21:19:25 32° ENE 21:19:25 32° ENE
CZ-3B DEB 4.3 21:13:19 10° W 21:21:31 28° NW 21:26:00 10° NNE
SL-14 R/B 4.4 21:20:11 10° NNE 21:22:48 28° NE 21:22:48 28° NE
Cosmos 1271 Rocket 3.0 21:20:12 10° SSW 21:24:12 73° W 21:28:14 10° N
COSMOS 2487 3.4 21:20:58 10° NNW 21:24:24 47° WSW 21:26:45 18° S
Cosmos 2251 Rocket 4.0 21:22:36 10° N 21:27:39 42° ENE 21:28:42 38° E
H-2A R/B 4.3 21:23:10 10° WSW 21:29:15 54° SSE 22:32:35 10° ESE
H-2A R/B 4.3 21:23:09 10° WSW 21:29:15 54° SSE 22:32:35 10° ESE
H-2A R/B 4.3 21:23:09 10° WSW 21:29:16 54° SSE 22:32:35 10° ESE
H-2A R/B 4.3 21:23:10 10° WSW 21:29:16 54° SSE 22:32:35 10° ESE
Cosmos 1328 4.3 21:27:05 10° N 21:30:24 42° NE 21:30:24 42° NE
Cosmos 1674 3.6 21:29:34 10° NNW 21:33:14 47° W 21:36:15 14° SSW
Lacrosse 5 4.5 21:32:53 10° WNW 21:35:56 16° NNW 21:39:00 10° NNE
USA 215 3.2 21:30:03 10° NE 21:36:27 56° SE 21:42:50 10° SSW
SAR-Lupe-1 4.5 21:36:02 39° SSW 21:37:08 61° W 21:40:41 10° NNW
Cosmos 1802 Rocket 3.9 21:31:42 10° S 21:37:49 86° E 21:44:01 10° N
SPOT 5 4.4 21:42:54 25° NE 21:42:54 25° NE 21:46:27 10° NNE
Cosmos 1939 Rocket 2.7 21:42:56 76° ESE 21:43:09 79° ENE 21:47:19 10° N
Cosmos 2151 3.9 21:39:11 10° N 21:42:00 33° NE 21:42:00 33° NE
Helios 1B rocket 3.4 21:40:35 10° N 21:44:34 48° WNW 21:48:31 10° SSW
SJ-11-01 4.2 21:48:14 49° S 21:49:30 84° WSW 21:54:15 10° NNW
Cosmos 1842 Rocket 3.5 21:50:28 56° SSW 21:51:24 85° W 21:55:48 10° N
Lacrosse 5 rocket 1.7 21:50:53 10° NW 21:54:09 56° W 21:54:09 56° W
Cosmos 2061 Rocket 4.4 21:48:49 10° SSW 21:55:09 64° W 22:01:33 10° N
Cosmos 2369 Rocket 3.8 22:01:47 21° NE 22:01:47 21° NE 22:03:36 10° NNE
Cosmos 494 Rocket 3.7 21:53:39 10° NNW 21:58:48 82° ENE 21:59:02 79° ESE
Gblst 52 Del rocket 4.1 22:00:34 10° SW 22:06:34 88° NW 22:07:37 61° NE
Cosmos 2233 Rocket 4.5 22:10:13 43° NE 22:10:13 43° NE 22:14:43 10° NNE
Envisat 3.8 22:08:43 33° SSW 22:10:37 48° W 22:15:32 10° NNW
Cosmos 1833 Rocket 4.4 22:08:11 10° NW 22:12:53 28° WSW 22:16:33 14° SSW
Cosmos 1864 Rocket 4.4 22:11:34 40° S 22:14:05 86° W 22:20:26 10° N
ERS-1 Rocket 3.2 22:23:15 66° WNW 22:23:15 66° WNW 22:27:48 10° NNW
ATLAS 5 CENTAUR R/B 4.3 22:21:38 10° W 22:25:10 20° NW 22:28:57 10° N
H-2A R/B 3.7 22:31:01 24° NNE 22:31:01 24° NNE 22:33:22 10° N
CZ-3 Stage 3 3.6 22:17:11 10° W 22:37:38 46° SSW 22:38:06 45° SSW
ARGOS 4.3 22:55:16 38° NNW 22:55:16 38° NNW 22:58:30 10° NNW
USA 215 4.2 23:13:13 10° NE 23:19:18 43° NNW 23:25:23 10° WSW
Cosmos 2369 Rocket 4.4 23:43:23 21° NW 23:43:23 21° NW 23:46:49 10° N
